[[{"header":{"parameterUnit":"m.s-1","parameterCategory":1,"la1":30.2991,"la2":30.254,"lo1":-89.0895,"lo2":-89.0444,"dy":0.0017,"dx":0.0017,"nx":28,"ny":28,"refTime":"2025-05-30T03:00:00:Z","depth":0,"parameterNumber":2,"parameterNumberName":"U-component_of_WINDS"},"data":[0,0,0,0,0,0,0,0,0,0,0,0,0,0,0,0,0,0,0,0,0,0,0,0,0,0,0,0,0,0,0,0,0,0,0,0,0,0,0,0,0,0,0,0,0,0,0,0,0,0,0,0,0,0,0,0,0,0,2.661,2.6611,0,2.6723,2.6724,2.6725,2.6711,2.6709,2.6708,2.6706,2.6821,2.6826,2.683,0,0,0,0,0,0,0,0,0,0,0,0,0,2.6383,2.6388,2.661,2.6612,2.6613,2.6723,2.6724,2.6726,2.6712,2.6709,2.6707,2.6705,2.682,2.6825,2.6831,0,0,0,0,0,0,0,0,0,0,0,0,0,2.6487,2.6389,2.661,2.6619,2.6621,2.6722,2.6724,2.6726,2.6712,2.6709,2.6707,2.6704,2.6818,2.6825,2.6832,2.6931,0,0,2.6854,2.6857,0,0,0,0,0,0,0,0,2.6482,2.6496,2.6616,2.6619,2.6621,2.67,2.6686,2.6795,2.6713,2.6678,2.6706,2.6703,2.6783,2.6793,2.682,2.6936,2.6941,2.6854,2.6859,2.6862,2.6864,0,0,0,0,0,0,0,2.6474,2.6491,2.6655,2.6618,2.6621,2.6618,2.663,2.6707,2.6744,2.668,2.668,2.6693,2.6784,2.6813,2.6823,2.6943,2.6854,2.686,2.6865,2.6868,2.7147,2.715,0,0,0,0,0,0,2.6465,2.6485,2.6651,2.6658,2.6543,2.6624,2.6637,2.6678,2.6743,2.6751,2.6695,2.6692,2.6802,2.6814,2.6827,2.6948,2.6862,2.6868,2.6872,2.7144,2.7147,2.7151,0,0,0,0,0,0,2.646,2.648,2.6647,2.6571,2.6592,2.6631,2.6676,2.6681,2.6711,2.6755,2.6761,2.6719,2.6801,2.6817,2.6905,2.6951,2.6871,2.6878,2.714,2.7145,2.7149,2.719,0,0,0,0,0,0,2.6454,2.6478,2.6516,2.6572,2.6596,2.6723,2.6679,2.6685,2.6723,2.672,2.6778,2.6785,2.68,2.6895,2.6912,2.696,2.6884,2.7136,2.7142,2.7148,2.7185,2.7196,2.7205,0,0,0,0,0,2.6445,2.6523,2.6518,2.6538,2.6645,2.6726,2.674,2.6755,2.6727,2.6765,2.6794,2.6783,2.6943,2.6904,2.6924,2.6974,2.7133,2.714,2.7147,2.718,2.7194,2.7205,0,0,0,0,0,0,2.6471,2.6531,2.6526,2.6624,2.667,2.6723,2.6773,2.6768,2.6823,2.6818,2.6834,2.6848,2.6937,2.6964,2.6919,2.7074,2.7034,2.7046,2.7053,2.7066,2.7076,2.7068,2.689,0,0,0,0,0,2.6488,2.6549,2.6598,2.668,2.6703,2.6734,2.677,2.6777,2.6826,2.6845,2.688,2.6928,2.6989,2.7029,2.7087,2.7188,2.7201,2.7233,2.7243,2.7251,2.7261,2.7317,2.7332,2.7174,2.7174,2.7174,0,0,2.6524,2.6564,2.6601,2.6686,2.6722,2.6785,2.675,2.6818,2.6865,2.6856,2.6942,2.6969,2.7023,2.7119,2.7163,2.7144,2.7307,2.726,2.7266,2.7272,2.7326,2.7341,2.7354,2.7179,2.7178,2.7177,0,0,2.6622,2.6658,2.673,2.6768,2.6824,2.6844,2.6861,2.6916,2.6934,2.702,2.7015,2.7071,2.7175,2.7214,2.7248,2.7361,2.7354,2.7379,2.7432,2.7487,2.7499,2.751,2.7551,2.7566,2.7389,2.7389,2.7389,0,2.6659,2.6754,2.6768,2.6837,2.6875,2.6869,2.6943,2.6978,2.7051,2.7077,2.7055,2.7187,2.7222,2.7328,2.7355,2.7382,2.7403,2.7373,2.7496,2.7508,2.7518,2.7558,2.7573,2.7392,2.7391,2.7391,2.7391,0,2.6798,2.6864,2.6915,2.6986,2.7029,2.71,2.7125,2.7167,2.7171,2.7193,2.7282,2.7325,2.7392,2.7418,2.7422,2.7524,2.7511,2.7492,2.7453,2.7536,2.7573,2.7588,2.7396,2.7395,2.7394,2.7393,0,0,2.6915,2.6993,2.7012,2.7044,2.7105,2.7156,2.7227,2.7293,2.7329,2.7379,2.744,2.7528,2.7512,2.755,2.7559,2.7607,2.7695,2.7583,2.7584,2.7603,2.781,2.7824,2.7841,2.769,2.7693,2.7695,2.7806,0,2.702,2.7145,2.716,2.7272,2.7333,2.7329,2.739,2.7435,2.7458,2.7513,2.7538,2.7602,2.7575,2.7598,2.7645,2.7674,2.7737,2.7666,2.7747,2.7749,2.7734,2.7861,2.7876,2.7978,2.782,2.7823,2.7825,0,2.7159,2.7213,2.7331,2.7384,2.7411,2.7466,2.7528,2.7581,2.7631,2.7645,2.7687,2.769,2.7764,2.7721,2.7823,2.7775,2.7808,2.7828,2.7832,2.7841,2.7792,2.7874,2.8011,2.8027,2.7848,2.7846,2.7844,0,2.7234,2.7336,2.742,2.7447,2.7512,2.7551,2.7579,2.7627,2.7666,2.772,2.7746,2.7808,2.7842,2.789,2.7909,2.7876,2.8011,2.7969,2.8024,2.8024,2.8053,2.8051,2.8199,2.8074,2.8074,2.8073,2.8073,0,2.7349,2.7422,2.7455,2.7506,2.7588,2.7604,2.7684,2.7711,2.7754,2.7811,2.781,2.7864,2.7886,2.7943,2.7959,2.8041,2.8056,2.8069,2.8073,2.807,2.8069,2.8093,2.8087,2.8077,2.8076,2.8076,2.8075,0,2.7447,2.7472,2.7563,2.7617,2.7632,2.7689,2.7735,2.7785,2.7807,2.788,2.7898,2.7933,2.8,2.8024,2.8106,2.8116,2.8212,2.8209,2.8195,2.8196,2.825,2.8245,2.8419,2.8443,2.8301,2.8303,2.8304,0,2.752,2.7575,2.7635,2.7673,2.7703,2.7765,2.7804,2.7822,2.7864,2.7926,2.7969,2.8036,2.8091,2.8199,2.8231,2.8294,2.8293,2.835,2.8303,2.8298,2.8295,2.8292,2.8298,2.8359,2.836,2.8362,2.8363,0,2.7646,2.7656,2.7713,2.7775,2.7823,2.7872,2.792,2.7952,2.7977,2.8024,2.8093,2.8135,2.8219,2.8286,2.835,2.8379,2.8376,2.8377,2.8393,2.8391,2.8381,2.8388,2.822,2.8373,2.8372,2.8371,2.8371,2.837,2.7734,2.7784,2.7833,2.7897,2.7936,2.7981,2.8031,2.8059,2.8117,2.8186,2.8194,2.8268,2.8317,2.8403,2.8436,2.8495,2.8479,2.8502,2.8508,2.8514,2.8519,2.8371,2.8506,2.8506,2.8506,2.8506,2.8505,0,2.7861,2.7893,2.7952,2.8019,2.807,2.8061,2.8114,2.8157,2.8223,2.8269,2.8323,2.8402,2.8467,2.8505,2.857,2.861,2.861,2.8626,2.8624,2.8631,2.8528,2.8508,2.8625,2.8625,2.8625,2.8625,2.8625,2.8625,2.7934,2.8017,2.8033,2.8135,2.8167,2.824,2.8271,2.8312,2.8349,2.8438,2.8492,2.8516,2.856,2.8628,2.8687,2.8697,2.8721,2.8739,2.8747,2.8651,2.8638,2.8627,2.8608,2.8744,2.8744,2.8845,2.8846,2.8847]},{"header":{"parameterUnit":"m.s-1","parameterCategory":1,"la1":30.2991,"la2":30.254,"lo1":-89.0895,"lo2":-89.0444,"dy":0.0017,"dx":0.0017,"nx":28,"ny":28,"refTime":"2025-05-30T03:00:00:Z","depth":0,"parameterNumber":3,"parameterNumberName":"V-component_of_WINDS"},"data":[0,0,0,0,0,0,0,0,0,0,0,0,0,0,0,0,0,0,0,0,0,0,0,0,0,0,0,0,0,0,0,0,0,0,0,0,0,0,0,0,0,0,0,0,0,0,0,0,0,0,0,0,0,0,0,0,0,0,-1.0753,-1.0754,0,-1.0785,-1.0786,-1.0786,-1.0806,-1.0806,-1.0806,-1.0806,-1.0836,-1.0837,-1.0838,0,0,0,0,0,0,0,0,0,0,0,0,0,-1.0707,-1.0708,-1.0753,-1.0754,-1.0754,-1.0785,-1.0786,-1.0786,-1.0806,-1.0806,-1.0806,-1.0806,-1.0836,-1.0837,-1.0838,0,0,0,0,0,0,0,0,0,0,0,0,0,-1.0732,-1.0708,-1.0753,-1.0768,-1.0769,-1.0785,-1.0786,-1.0786,-1.0806,-1.0806,-1.0806,-1.0806,-1.0836,-1.0837,-1.0838,-1.0841,0,0,-1.0841,-1.0842,0,0,0,0,0,0,0,0,-1.073,-1.0733,-1.0765,-1.0767,-1.0769,-1.0792,-1.078,-1.0804,-1.0806,-1.0792,-1.0806,-1.0806,-1.0821,-1.0823,-1.0829,-1.0842,-1.0844,-1.0841,-1.0842,-1.0842,-1.0843,0,0,0,0,0,0,0,-1.0729,-1.0732,-1.0766,-1.0766,-1.0768,-1.0772,-1.0776,-1.0785,-1.0805,-1.0793,-1.0795,-1.0798,-1.0822,-1.0828,-1.083,-1.0844,-1.0841,-1.0842,-1.0843,-1.0843,-1.0861,-1.0861,0,0,0,0,0,0,-1.0725,-1.0731,-1.0765,-1.0767,-1.075,-1.0773,-1.0777,-1.0784,-1.0805,-1.0808,-1.0798,-1.0799,-1.0826,-1.0829,-1.0831,-1.0835,-1.0842,-1.0843,-1.0844,-1.0861,-1.0861,-1.086,0,0,0,0,0,0,-1.0724,-1.0728,-1.0764,-1.0749,-1.0754,-1.0773,-1.0781,-1.0785,-1.079,-1.0809,-1.0812,-1.08,-1.0826,-1.0829,-1.0838,-1.0837,-1.0844,-1.0845,-1.0861,-1.0861,-1.0861,-1.0845,0,0,0,0,0,0,-1.0722,-1.0727,-1.0729,-1.0749,-1.0755,-1.0771,-1.0781,-1.0785,-1.0793,-1.0794,-1.0812,-1.0815,-1.0827,-1.0837,-1.0839,-1.0838,-1.0845,-1.0861,-1.0861,-1.0861,-1.0845,-1.0844,-1.0843,0,0,0,0,0,-1.0721,-1.0723,-1.0729,-1.0733,-1.0758,-1.0771,-1.0774,-1.0788,-1.0792,-1.0794,-1.0806,-1.0815,-1.0837,-1.0837,-1.0841,-1.084,-1.0861,-1.0861,-1.0861,-1.0846,-1.0844,-1.0843,0,0,0,0,0,0,-1.0702,-1.0726,-1.0733,-1.0742,-1.0754,-1.0774,-1.0777,-1.0786,-1.0797,-1.0797,-1.0814,-1.0817,-1.0824,-1.0833,-1.0834,-1.0844,-1.085,-1.085,-1.0838,-1.0836,-1.0835,-1.0832,-1.0846,0,0,0,0,0,-1.0699,-1.0708,-1.0729,-1.0735,-1.0741,-1.0758,-1.0764,-1.0774,-1.0787,-1.0792,-1.0804,-1.0816,-1.0825,-1.0831,-1.0841,-1.0847,-1.085,-1.0848,-1.0846,-1.0845,-1.0845,-1.0848,-1.0847,-1.0859,-1.0859,-1.0859,0,0,-1.0692,-1.0707,-1.0712,-1.0731,-1.0742,-1.0751,-1.0762,-1.0771,-1.0777,-1.0793,-1.0802,-1.0811,-1.0825,-1.0833,-1.0836,-1.084,-1.0842,-1.0845,-1.0844,-1.0844,-1.0847,-1.0846,-1.0845,-1.0859,-1.0859,-1.0859,0,0,-1.0685,-1.0698,-1.0704,-1.0714,-1.0731,-1.0742,-1.0743,-1.0762,-1.0769,-1.0779,-1.0791,-1.0798,-1.0814,-1.0824,-1.083,-1.0826,-1.0835,-1.0829,-1.0822,-1.0824,-1.0823,-1.0823,-1.082,-1.082,-1.0829,-1.0829,-1.0829,0,-1.0675,-1.069,-1.0705,-1.0714,-1.0721,-1.0737,-1.0743,-1.0752,-1.077,-1.0775,-1.0779,-1.0799,-1.081,-1.0819,-1.0818,-1.0823,-1.0825,-1.0827,-1.0822,-1.0822,-1.0821,-1.0819,-1.0819,-1.0828,-1.0828,-1.0828,-1.0828,0,-1.0676,-1.0686,-1.0689,-1.0707,-1.0715,-1.0722,-1.0738,-1.0744,-1.0753,-1.0763,-1.0772,-1.0786,-1.0798,-1.0801,-1.081,-1.0811,-1.0813,-1.082,-1.0826,-1.0819,-1.0817,-1.0817,-1.0827,-1.0827,-1.0828,-1.0828,0,0,-1.0658,-1.0685,-1.0685,-1.0693,-1.0712,-1.072,-1.0727,-1.074,-1.0745,-1.0757,-1.0762,-1.0776,-1.0782,-1.079,-1.0799,-1.0802,-1.0797,-1.0808,-1.0808,-1.0805,-1.0799,-1.0793,-1.0792,-1.0803,-1.0803,-1.0803,-1.0797,0,-1.0653,-1.0668,-1.0682,-1.0691,-1.07,-1.0715,-1.0721,-1.0732,-1.0742,-1.075,-1.0761,-1.077,-1.0778,-1.0783,-1.0786,-1.0797,-1.0796,-1.0797,-1.0807,-1.0807,-1.0803,-1.0792,-1.0786,-1.078,-1.0797,-1.0797,-1.0797,0,-1.065,-1.0662,-1.0672,-1.069,-1.0694,-1.0699,-1.0712,-1.072,-1.0733,-1.074,-1.0749,-1.0759,-1.0766,-1.0772,-1.0782,-1.0783,-1.0788,-1.0794,-1.0794,-1.0795,-1.0801,-1.0792,-1.0779,-1.0778,-1.0796,-1.0796,-1.0796,0,-1.0635,-1.0653,-1.0662,-1.0668,-1.0689,-1.0693,-1.0701,-1.0715,-1.0722,-1.0732,-1.0737,-1.0748,-1.0754,-1.0762,-1.0775,-1.0778,-1.0783,-1.079,-1.0788,-1.0788,-1.0788,-1.0788,-1.0775,-1.0792,-1.0792,-1.0792,-1.0792,0,-1.0628,-1.0633,-1.0655,-1.066,-1.0666,-1.0682,-1.0688,-1.0698,-1.071,-1.0716,-1.0729,-1.0735,-1.0752,-1.0759,-1.0769,-1.0775,-1.0778,-1.0783,-1.0786,-1.0782,-1.0781,-1.0785,-1.0785,-1.0792,-1.0792,-1.0792,-1.0792,0,-1.0612,-1.0627,-1.0637,-1.0656,-1.0661,-1.0665,-1.0681,-1.0686,-1.0696,-1.0704,-1.0707,-1.0724,-1.0733,-1.0747,-1.076,-1.0767,-1.0771,-1.0775,-1.0767,-1.0768,-1.0765,-1.0765,-1.0754,-1.0753,-1.0771,-1.0771,-1.0771,0,-1.0606,-1.0611,-1.063,-1.0636,-1.0645,-1.0654,-1.0661,-1.0676,-1.0683,-1.0698,-1.0701,-1.0712,-1.0721,-1.0735,-1.0748,-1.0758,-1.0762,-1.0758,-1.0763,-1.0759,-1.0761,-1.076,-1.0761,-1.0756,-1.0756,-1.0755,-1.0755,0,-1.0594,-1.0601,-1.0611,-1.0624,-1.0632,-1.0642,-1.0653,-1.0657,-1.0675,-1.0681,-1.0692,-1.0699,-1.0713,-1.0722,-1.0734,-1.0742,-1.0751,-1.0753,-1.0753,-1.0749,-1.0743,-1.0746,-1.0762,-1.0753,-1.0754,-1.0754,-1.0754,-1.0754,-1.0582,-1.0587,-1.0602,-1.0612,-1.0622,-1.0632,-1.0638,-1.0649,-1.0658,-1.0671,-1.068,-1.0689,-1.0702,-1.0719,-1.0726,-1.0733,-1.0737,-1.0737,-1.0737,-1.0736,-1.0735,-1.0743,-1.0735,-1.0735,-1.0735,-1.0736,-1.0736,0,-1.0571,-1.0581,-1.059,-1.0606,-1.0614,-1.0623,-1.0635,-1.0641,-1.0649,-1.0661,-1.067,-1.0681,-1.069,-1.0704,-1.0714,-1.0717,-1.0721,-1.0719,-1.0719,-1.072,-1.0731,-1.073,-1.0715,-1.0715,-1.0715,-1.0715,-1.0715,-1.0715,-1.0565,-1.0573,-1.0582,-1.0595,-1.0605,-1.0615,-1.0621,-1.063,-1.0639,-1.0651,-1.066,-1.0669,-1.068,-1.0692,-1.0701,-1.0704,-1.0707,-1.0703,-1.0708,-1.0718,-1.072,-1.0721,-1.072,-1.0704,-1.0704,-1.0697,-1.0697,-1.0697]}]]